Regional Weather Roundup
Issued by NWS Goodland, KS

Home | Current Version | Previous Version | Text Only | Print | Product List | Glossary Off
Versions: 1 2 3 4 5 6 7 8 9 10 11 12 13 14 15 16 17 18 19 20 21 22 23 24 25 26 27 28 29 30 31 32 33 34 35 36 37 38 39 40 41 42 43 44 45 46 47 48 49 50

000
ASUS43 KGLD 251359
RWRGLD

GOODLAND FORECAST AREA HOURLY WEATHER ROUNDUP
NATIONAL WEATHER SERVICE GOODLAND KS
800 AM MDT FRI JUL 25 2014

...OFFICIAL OBSERVATIONS...

CITY           SKY/WX    TMP DP  RH WIND       PRES   REMARKS
GOODLAND KS    MOSUNNY   79  58  48 W12       29.94R
HILL CITY KS   MOSUNNY   84  62  47 SW12G21   29.83R
IMPERIAL NEB   MOSUNNY   76  57  51 N15       29.91R
MCCOOK NEB     SUNNY     77  59  53 W7        29.85R
AKRON CO       MOSUNNY   75  53  46 NW15G23   30.04R
BURLINGTON CO  SUNNY     83  53  35 NW12      29.99R
LIMON CO       MOSUNNY   77  54  44 NW7       30.09S
$$

...UNOFFICIAL OBSERVATIONS...

CITY           SKY/WX    TMP DP  RH WIND       PRES   REMARKS
COLBY KS       SUNNY     81  63  54 W6        29.91R
GOVE KS          N/A     79  32  18 MISG        N/A
LENORA KS        N/A     80  32  17 MISG        N/A
NORTON KS      SUNNY     82  55  39 SW12      29.82F
SHARON SPRINGS   N/A     78  58  49 N5          N/A
KIT CARSON CO    N/A     79  53  39 CALM        N/A
YUMA CO          N/A     73  56  56 NW12        N/A
$$



USA.gov is the U.S. government's official web portal to all federal, state and local government web resources and services.